San Angelo, TX

7:57 AM CDT on May 26, 2018 (GMT -0500)
San Angelo Regional-Mathis

Weather History for KSJT - November, 2012

Change the Weather History Date:

Monday, November 26, 2012

  Actual Average Record
Temperature  
Mean Temperature 64 °F 51 °F  
Max Temperature 79 °F 64 °F 85 °F (1965)
Min Temperature 48 °F 38 °F 19 °F (1993)
Degree Days  
Heating Degree Days 1 14  
Month to date heating degree days 153 250  
Since 1 July heating degree days 270 341  
Cooling Degree Days 0 0  
Month to date cooling degree days 40 15  
Year to date cooling degree days 3225 2499  
Growing Degree Days 14 (Base 50)    
Moisture  
Dew Point 43 °F    
Average Humidity 58    
Maximum Humidity 93    
Minimum Humidity 23    
Precipitation  
Precipitation 0.00 in 0.03 in 1.64 in (1914)
Month to date precipitation T 1.03  
Year to date precipitation 21.78 20.29  
Snow  
Snow 0.00 in 0.00 in 4.00 in (1918)
Month to date snowfall 0.0 0.2  
Since 1 July snowfall T 0.2  
Snow Depth 0.00 in    
Sea Level Pressure  
Sea Level Pressure 30.02 in    
Wind  
Wind Speed 12 mph (NW)    
Max Wind Speed 22 mph    
Max Gust Speed 38 mph    
Visibility 9 miles    
Events      
T = Trace of Precipitation, MM = Missing Value Source: NWS Daily Summary

Daily Weather History Graph

Daily Weather History Graph

Search for Another Location

Airport or City:

Astronomy

Nov. 26, 2012 Rise Set
Actual Time 7:19 AM CST 5:39 PM CST
Civil Twilight 6:53 AM CST 6:05 PM CST
Nautical Twilight 6:23 AM CST 6:35 PM CST
Astronomical Twilight 5:54 AM CST 7:04 PM CST
Moon 4:29 PM CST 5:35 AM CST
Length of Visible Light 11h 12m
Length of Day
10h 19m
Waxing Gibbous, 97% of the Moon is Illuminated
Nov 26
Waxing Gibbous
Nov 28
Full
Dec 6
Last Quarter
Dec 13
New
Dec 19
First Quarter

Hourly Weather History & Observations

Time (CST) Temp. Dew Point Humidity Pressure Visibility Wind Dir Wind Speed Gust Speed Precip Events Conditions
12:51 AM 62.1 °F 51.1 °F 67% 29.86 in 10.0 mi South 17.3 mph 24.2 mph N/A   Clear
1:51 AM 60.1 °F 52.0 °F 75% 29.85 in 10.0 mi SSW 16.1 mph - N/A   Clear
2:51 AM 59.0 °F 53.1 °F 81% 29.86 in 10.0 mi SSW 13.8 mph - N/A   Clear
3:51 AM 59.0 °F 54.0 °F 83% 29.87 in 10.0 mi SW 12.7 mph - N/A   Clear
4:51 AM 57.0 °F 55.0 °F 93% 29.88 in 10.0 mi SSW 11.5 mph - N/A   Clear
5:51 AM 55.9 °F 54.0 °F 93% 29.90 in 8.0 mi SW 9.2 mph - N/A   Clear
6:51 AM 55.0 °F 53.1 °F 93% 29.92 in 6.0 mi SW 8.1 mph - N/A   Clear
7:51 AM 53.1 °F 52.0 °F 96% 29.94 in 3.0 mi SW 3.5 mph - N/A   Clear
9:51 AM 64.0 °F 55.0 °F 73% 29.98 in 10.0 mi SW 10.4 mph - N/A   Clear
10:51 AM 70.0 °F 52.0 °F 53% 29.97 in 10.0 mi WSW 6.9 mph - N/A   Clear
11:51 AM 73.9 °F 48.9 °F 41% 29.96 in 10.0 mi WNW 6.9 mph - N/A   Clear
12:51 PM 78.1 °F 37.9 °F 24% 29.93 in 10.0 mi NNW 10.4 mph - N/A   Clear
2:51 PM 75.0 °F 36.0 °F 24% 29.96 in 10.0 mi North 15.0 mph - N/A   Partly Cloudy
3:51 PM 73.0 °F 34.0 °F 24% 30.00 in 10.0 mi North 13.8 mph - N/A   Clear
4:51 PM 66.9 °F 35.1 °F 31% 30.04 in 10.0 mi North 18.4 mph - N/A   Clear
5:51 PM 62.1 °F 35.1 °F 37% 30.10 in 10.0 mi North 18.4 mph 25.3 mph N/A   Clear
6:51 PM 60.1 °F 37.9 °F 44% 30.15 in 10.0 mi NNE 12.7 mph - N/A   Clear
7:51 PM 57.9 °F 37.0 °F 46% 30.19 in 10.0 mi NNE 15.0 mph - N/A   Clear
8:51 PM 55.9 °F 35.1 °F 45% 30.22 in 10.0 mi NNE 12.7 mph - N/A   Clear
9:51 PM 54.0 °F 30.9 °F 41% 30.25 in 10.0 mi NNE 19.6 mph 24.2 mph N/A   Clear
10:51 PM 51.1 °F 30.0 °F 44% 30.28 in 10.0 mi NNE 19.6 mph 26.5 mph N/A   Clear
11:51 PM 48.9 °F 28.9 °F 46% 30.29 in 10.0 mi NNE 16.1 mph - N/A   Clear